Change the Weather History Date:

Monday, January 1, 2001

  Actual Average Record
Temperature  
Mean Temperature 22 °F 32 °F  
Max Temperature 24 °F 39 °F 73 °F (1952)
Min Temperature 19 °F 24 °F -4 °F (1968)
Degree Days  
Heating Degree Days 44 33  
Month to date heating degree days 33  
Since 1 July heating degree days 2017  
Cooling Degree Days 0 0  
Month to date cooling degree days 0  
Year to date cooling degree days 0  
Moisture  
Dew Point 18 °F    
Average Humidity 84    
Maximum Humidity 93    
Minimum Humidity 74    
Precipitation  
Precipitation 0.00 in 0.09 in 0.89 in (2003)
Month to date precipitation 0.09  
Year to date precipitation 0.09  
Sea Level Pressure  
Sea Level Pressure 30.31 in    
Wind  
Wind Speed 4 mph (WSW)    
Max Wind Speed 7 mph    
Max Gust Speed -    
Visibility 8 miles    
Events Snow    
T = Trace of Precipitation, MM = Missing Value Source: NWS Daily Summary

Daily Weather History Graph

Daily Weather History Graph

Search for Another Location

Airport or City:

Trip Planner

Search our weather history database for the weather conditions in past years. The results will help you decide how hot, cold, wet, or windy it might be!

Date:

Astronomy

Jan. 01, 2001 Rise Set
Actual Time 7:40 AM EST 5:06 PM EST
Civil Twilight 7:10 AM EST 5:36 PM EST
Nautical Twilight 6:36 AM EST 6:10 PM EST
Astronomical Twilight 6:03 AM EST 6:43 PM EST
Moon 11:51 AM EST 11:40 PM EST
Length of Visible Light 10h 26m
Length of Day
9h 25m
Waxing Crescent, 38% of the Moon is Illuminated
Jan 1
Waxing Crescent
Jan 2
First Quarter
Jan 9
Full
Jan 16
Last Quarter
Jan 24
New

Hourly Weather History & Observations

Time (EST) Temp. Windchill Dew Point Humidity Pressure Visibility Wind Dir Wind Speed Gust Speed Precip Events Conditions
12:53 AM 23.0 °F 17.0 °F 19.0 °F 85% 30.26 in 10.0 mi West 4.6 mph - N/A   Overcast
1:53 AM 23.0 °F 18.4 °F 18.0 °F 81% 30.26 in 10.0 mi WSW 3.5 mph - N/A   Overcast
2:53 AM 21.9 °F 13.4 °F 18.0 °F 85% 30.28 in 10.0 mi SW 6.9 mph - N/A   Overcast
3:32 AM 21.2 °F 13.6 °F 17.6 °F 86% 30.23 in 10.0 mi WSW 5.8 mph - N/A   Overcast
3:53 AM 21.9 °F 13.4 °F 18.0 °F 85% 30.29 in 10.0 mi SW 6.9 mph - N/A   Overcast
4:53 AM 21.9 °F 14.5 °F 18.0 °F 85% 30.29 in 10.0 mi SW 5.8 mph - N/A   Overcast
5:44 AM 21.2 °F 13.6 °F 17.6 °F 86% 30.26 in 10.0 mi Variable 5.8 mph - N/A   Overcast
5:53 AM 21.0 °F 13.4 °F 18.0 °F 88% 30.32 in 10.0 mi SW 5.8 mph - N/A   Overcast
6:53 AM 21.0 °F - 18.0 °F 88% 30.34 in 10.0 mi Calm Calm - N/A   Overcast
7:53 AM 19.9 °F 13.4 °F 18.0 °F 92% 30.35 in 10.0 mi SW 4.6 mph - N/A   Overcast
8:53 AM 19.9 °F 12.1 °F 18.0 °F 92% 30.35 in 9.0 mi SW 5.8 mph - 0.00 in Snow Light Snow
9:53 AM 19.9 °F 11.1 °F 18.0 °F 92% 30.36 in 7.0 mi Variable 6.9 mph - 0.00 in Snow Light Snow
10:53 AM 21.0 °F 13.4 °F 18.0 °F 88% 30.36 in 5.0 mi Variable 5.8 mph - 0.00 in Snow Light Snow
11:53 AM 21.0 °F 13.4 °F 18.0 °F 88% 30.33 in 4.0 mi West 5.8 mph - 0.00 in Snow Light Snow
12:53 PM 21.9 °F 15.7 °F 18.0 °F 85% 30.31 in 4.0 mi WSW 4.6 mph - 0.00 in Snow Light Snow
1:53 PM 23.0 °F 17.0 °F 18.0 °F 81% 30.30 in 5.0 mi SW 4.6 mph - 0.00 in Snow Light Snow
2:53 PM 23.0 °F 15.8 °F 18.0 °F 81% 30.30 in 6.0 mi SSW 5.8 mph - 0.00 in Snow Light Snow
3:05 PM 24.8 °F 19.1 °F 17.6 °F 74% 30.25 in 6.0 mi SW 4.6 mph - 0.00 in Snow Light Snow
3:13 PM 24.8 °F 20.5 °F 17.6 °F 74% 30.25 in 7.0 mi WSW 3.5 mph - 0.00 in Snow Light Snow
3:27 PM 24.8 °F 20.5 °F 17.6 °F 74% 30.25 in 9.0 mi Variable 3.5 mph - 0.00 in Snow Light Snow
3:35 PM 24.8 °F 20.5 °F 17.6 °F 74% 30.26 in 9.0 mi West 3.5 mph - 0.00 in Snow Light Snow
3:53 PM 24.1 °F 19.7 °F 17.1 °F 75% 30.31 in 9.0 mi West 3.5 mph - 0.00 in Snow Light Snow
4:53 PM 24.1 °F 19.7 °F 18.0 °F 77% 30.32 in 7.0 mi NW 3.5 mph - 0.00 in Snow Light Snow
5:43 PM 24.8 °F 19.1 °F 17.6 °F 74% 30.28 in 9.0 mi WNW 4.6 mph - 0.00 in Snow Light Snow
5:53 PM 24.1 °F 18.2 °F 17.1 °F 75% 30.33 in 7.0 mi NW 4.6 mph - 0.00 in Snow Light Snow
6:10 PM 23.0 °F 17.0 °F 17.6 °F 80% 30.28 in 7.0 mi WNW 4.6 mph - 0.00 in Snow Light Snow
6:19 PM 23.0 °F 18.4 °F 17.6 °F 80% 30.28 in 6.0 mi Variable 3.5 mph - 0.00 in Snow Light Snow
6:53 PM 23.0 °F - 18.0 °F 81% 30.35 in 8.0 mi Calm Calm - 0.00 in Snow Light Snow
7:53 PM 21.9 °F 17.2 °F 18.0 °F 85% 30.35 in 9.0 mi WSW 3.5 mph - 0.00 in Snow Light Snow
8:16 PM 21.2 °F - 17.6 °F 86% 30.30 in 9.0 mi Calm Calm - 0.00 in Snow Light Snow
8:45 PM 21.2 °F 14.9 °F 17.6 °F 86% 30.30 in 9.0 mi West 4.6 mph - 0.00 in Snow Light Snow
8:53 PM 21.9 °F 17.2 °F 17.1 °F 82% 30.36 in 9.0 mi WSW 3.5 mph - 0.00 in   Scattered Clouds
9:32 PM 21.2 °F 16.4 °F 17.6 °F 86% 30.31 in 10.0 mi NW 3.5 mph - N/A   Overcast
9:53 PM 21.0 °F - 17.1 °F 85% 30.37 in 10.0 mi Calm Calm - N/A   Mostly Cloudy
10:18 PM 21.2 °F 14.9 °F 17.6 °F 86% 30.31 in 10.0 mi WSW 4.6 mph - N/A   Mostly Cloudy
10:33 PM 21.2 °F 16.4 °F 17.6 °F 86% 30.32 in 10.0 mi WSW 3.5 mph - N/A   Overcast
10:43 PM 19.4 °F - 17.6 °F 93% 30.32 in 10.0 mi Calm Calm - N/A   Overcast
10:53 PM 19.9 °F 14.9 °F 17.1 °F 89% 30.38 in 10.0 mi SW 3.5 mph - N/A   Overcast
11:53 PM 19.0 °F 12.3 °F 16.0 °F 88% 30.38 in 10.0 mi SW 4.6 mph - N/A   Overcast